Location: Anjeux
(47.8815°N, 6.2076°E)
Time: 07:33:20
(UTC+00:00)

CENTAUR R/B - Pass Details

Date: 05 March 2021
Orbit: 742 x 1446 km, 63.4° (Epoch: 31 March)

Event Time Altitude Azimuth Distance (km) Brightness Sun altitude
Rises 05:05:19 0° 318° (NW) 4,168 5.4 -11.4°
Reaches altitude 10° 05:08:01 10° 315° (NW) 3,283 4.9 -10.9°
Maximum altitude 05:15:58 59° 238° (WSW) 1,574 3.3 -9.6°
Drops below altitude 10° 05:24:38 10° 162° (SSE) 3,551 5.7 -8.1°
Sets 05:27:40 0° 159° (SSE) 4,526 6.3 -7.6°
